FW4185 Weather Reports


Display with metric or nautical units.
time (UTC)temp
F
wind
direction
speed
MPH
gust
MPH
rain 1hr
in
rain 24hr
in
rain mn
in
humidity
%
barometer
mb
20260904200918 0 0 0.0 0.0 0.00 0.00 0.00
20260904200132 73 355 0.0 6.0 0.00 0.00 0.00 64 1013.6
20260904195448 0 356 1.0 7.0 0.00 0.00 0.00
20260904194656 73 357 4.0 5.0 0.00 0.00 0.00 65 1013.7
20260904193749 0 360 0.0 6.0 0.00 0.00 0.00
20260904192958 73 357 2.0 7.0 0.00 0.00 0.00 65 1013.9
20260904192319 73 355 5.0 7.0 0.00 0.00 0.00 66 1014.0
20260904191641 73 356 0.0 7.0 0.00 0.00 0.00 66 1014.1
20260904190958 73 356 3.0 9.0 0.00 0.00 0.00 65 1014.2
20260904190318 0 358 3.0 5.0 0.00 0.00 0.00
20260904185528 0 357 7.0 8.0 0.00 0.00 0.00
20260904184738 73 355 4.0 10.0 0.00 0.00 0.00 62 1014.6
20260904184058 0 356 4.0 4.0 0.00 0.00 0.00
20260904183157 73 356 0.0 0.0 0.00 0.00 0.00 60 1014.8
20260904182516 74 358 0.0 0.0 0.00 0.00 0.00 58 1014.7
20260904181838 75 357 0.0 8.0 0.00 0.00 0.00 55 1014.7
20260904181158 0 357 1.0 8.0 0.00 0.00 0.00
20260904180406 76 356 0.0 0.0 0.00 0.00 0.00 53 1014.7
20260904175736 75 357 0.0 0.0 0.00 0.00 0.00 50 1014.8
20260904175046 0 360 0.0 0.0 0.00 0.00 0.00
20260904174230 75 356 0.0 4.0 0.00 0.00 0.00 49 1014.9
20260904173551 0 356 0.0 9.0 0.00 0.00 0.00
20260904172753 75 356 6.0 9.0 0.00 0.00 0.00 48 1015.0
20260904172110 77 355 0.0 5.0 0.00 0.00 0.00 49 1015.1
20260904171439 0 353 0.0 3.0 0.00 0.00 0.00
20260904170534 75 357 0.0 0.0 0.00 0.00 0.00 52 1015.4
20260904165848 75 358 0.0 0.0 0.00 0.00 0.00 53 1015.6
20260904165209 77 356 0.0 0.0 0.00 0.00 0.00 52 1015.6
20260904164530 74 356 0.0 0.0 0.00 0.00 0.00 55 1015.5
20260904163849 76 356 0.0 0.0 0.00 0.00 0.00 53 1015.6
20260904163208 0 355 0.0 0.0 0.00 0.00 0.00
20260904162419 0 358 0.0 0.0 0.00 0.00 0.00
20260904161628 0 360 0.0 7.0 0.00 0.00 0.00
20260904160834 0 354 4.0 7.0 0.00 0.00 0.00
20260904155756 0 355 0.0 3.0 0.00 0.00 0.00
20260904154519 75 355 0.0 0.0 0.00 0.00 0.00 55 1015.4
20260904153839 0 359 0.0 0.0 0.00 0.00 0.00
20260904153056 74 359 0.0 0.0 0.00 0.00 0.00 59 1015.3
20260904152410 73 358 0.0 4.0 0.00 0.00 0.00 57 1015.2
20260904151730 74 356 0.0 4.0 0.00 0.00 0.00 57 1015.3
20260904151105 74 358 0.0 4.0 0.00 0.00 0.00 56 1015.2
20260904150410 0 356 0.0 3.0 0.00 0.00 0.00
20260904145626 0 0 0.0 0.0 0.00 0.00 0.00
20260904144915 74 358 0.0 0.0 0.00 0.00 0.00 56 1015.2
20260904144235 76 357 0.0 0.0 0.00 0.00 0.00 54 1015.3
20260904143555 75 357 0.0 0.0 0.00 0.00 0.00 54 1015.2
20260904142848 0 355 0.0 0.0 0.00 0.00 0.00
20260904142057 0 357 0.0 0.0 0.00 0.00 0.00
20260904141201 0 356 0.0 4.0 0.00 0.00 0.00
20260904140201 74 356 0.0 0.0 0.00 0.00 0.00 56 1014.8
20260904135517 75 356 0.0 0.0 0.00 0.00 0.00 54 1014.7
20260904134826 0 358 0.0 0.0 0.00 0.00 0.00
20260904134044 73 356 0.0 0.0 0.00 0.00 0.00 57 1014.9
20260904133356 0 357 0.0 0.0 0.00 0.00 0.00
20260904132503 72 357 0.0 0.0 0.00 0.00 0.00 60 1014.9
20260904131813 0 356 0.0 0.0 0.00 0.00 0.00
20260904131024 72 356 0.0 0.0 0.00 0.00 0.00 60 1015.1
20260904130339 0 356 0.0 0.0 0.00 0.00 0.00
20260904125523 0 352 0.0 0.0 0.00 0.00 0.00
20260904124508 0 358 0.0 0.0 0.00 0.00 0.00
20260904123714 0 354 0.0 0.0 0.00 0.00 0.00
20260904122901 0 357 0.0 0.0 0.00 0.00 0.00
20260904122058 0 0 0.0 0.0 0.00 0.00 0.00
20260904121307 70 355 0.0 0.0 0.00 0.00 0.00 66 1015.1
20260904120637 71 357 0.0 0.0 0.00 0.00 0.00 68 1015.1
20260904115947 70 356 0.0 0.0 0.00 0.00 0.00 66 1015.1
20260904115307 71 358 0.0 0.0 0.00 0.00 0.00 65 1015.1
20260904114627 71 356 0.0 0.0 0.00 0.00 0.00 70 1014.9
20260904113947 71 357 0.0 0.0 0.00 0.00 0.00 72 1014.9
20260904113317 70 355 0.0 0.0 0.00 0.00 0.00 73 1014.8
20260904112628 0 356 0.0 0.0 0.00 0.00 0.00
20260904111724 69 357 0.0 0.0 0.00 0.00 0.00 76 1014.6
20260904111045 68 357 0.0 0.0 0.00 0.00 0.00 78 1014.7
20260904110405 68 356 0.0 0.0 0.00 0.00 0.00 76 1014.6
20260904105726 68 355 0.0 0.0 0.00 0.00 0.00 76 1014.6
20260904105046 68 355 0.0 0.0 0.00 0.00 0.00 73 1014.6
20260904104406 69 359 0.0 0.0 0.00 0.00 0.00 72 1014.5
20260904103726 68 355 0.0 0.0 0.00 0.00 0.00 73 1014.5
20260904103046 0 356 0.0 0.0 0.00 0.00 0.00
20260904102258 68 356 0.0 0.0 0.00 0.00 0.00 76 1014.5
20260904101618 69 356 0.0 0.0 0.00 0.00 0.00 76 1014.5
20260904100938 69 356 0.0 0.0 0.00 0.00 0.00 75 1014.6
20260904100259 0 358 0.0 0.0 0.00 0.00 0.00
20260904095358 69 358 0.0 0.0 0.00 0.00 0.00 75 1014.6
20260904094718 0 352 0.0 0.0 0.00 0.00 0.00
20260904093923 69 354 0.0 0.0 0.00 0.00 0.00 78 1014.5
20260904093243 69 357 0.0 0.0 0.00 0.00 0.00 79 1014.4
20260904092613 0 356 0.0 0.0 0.00 0.00 0.00
20260904091814 69 357 0.0 0.0 0.00 0.00 0.00 80 1014.3
20260904091134 69 357 0.0 0.0 0.00 0.00 0.00 79 1014.3
20260904090454 69 357 0.0 0.0 0.00 0.00 0.00 77 1014.3
20260904085814 70 357 0.0 3.0 0.00 0.00 0.00 76 1014.4
20260904085134 70 358 0.0 4.0 0.00 0.00 0.00 74 1014.4
20260904084455 70 355 0.0 4.0 0.00 0.00 0.00 77 1014.5
20260904083815 71 356 0.0 0.0 0.00 0.00 0.00 76 1014.5
20260904083027 71 357 0.0 0.0 0.00 0.00 0.00 73 1014.4
20260904082346 71 357 0.0 0.0 0.00 0.00 0.00 74 1014.2
20260904081707 0 357 0.0 0.0 0.00 0.00 0.00
20260904080917 70 358 0.0 0.0 0.00 0.00 0.00 74 1014.0
20260904080237 70 352 0.0 0.0 0.00 0.00 0.00 73 1014.0
20260904075607 0 357 0.0 0.0 0.00 0.00 0.00
20260904074740 71 355 0.0 0.0 0.00 0.00 0.00 72 1013.9
20260904074100 70 355 0.0 0.0 0.00 0.00 0.00 72 1013.7
20260904073420 0 356 0.0 0.0 0.00 0.00 0.00
20260904072631 71 357 0.0 0.0 0.00 0.00 0.00 75 1013.7
20260904071951 70 358 0.0 0.0 0.00 0.00 0.00 74 1013.7
20260904071311 0 357 0.0 0.0 0.00 0.00 0.00
20260904070520 0 355 0.0 0.0 0.00 0.00 0.00
20260904065508 71 358 0.0 0.0 0.00 0.00 0.00 73 1013.8
20260904064828 71 357 0.0 0.0 0.00 0.00 0.00 72 1013.8
20260904064148 71 358 0.0 0.0 0.00 0.00 0.00 73 1013.8
20260904063508 71 356 0.0 0.0 0.00 0.00 0.00 71 1013.8
20260904062828 71 357 0.0 0.0 0.00 0.00 0.00 70 1013.7
20260904062147 72 356 0.0 0.0 0.00 0.00 0.00 69 1013.7
20260904061514 0 355 0.0 0.0 0.00 0.00 0.00
20260904060721 0 359 0.0 0.0 0.00 0.00 0.00
20260904055925 71 357 0.0 0.0 0.00 0.00 0.00 75 1013.6
20260904055259 71 356 0.0 0.0 0.00 0.00 0.00 76 1013.6
20260904054605 71 355 0.0 0.0 0.00 0.00 0.00 80 1013.7
20260904053925 71 357 0.0 0.0 0.00 0.00 0.00 81 1013.7
20260904053244 70 355 0.0 0.0 0.00 0.00 0.00 81 1013.7
20260904052604 70 357 0.0 0.0 0.00 0.00 0.00 82 1013.7
20260904051924 70 357 0.0 0.0 0.00 0.00 0.00 83 1013.7
20260904051244 0 357 0.0 0.0 0.00 0.00 0.00
20260904050455 71 358 0.0 0.0 0.00 0.00 0.00 83 1013.9
20260904045442 0 356 0.0 0.0 0.00 0.00 0.00
20260904044318 72 358 0.0 0.0 0.00 0.00 0.00 84 1013.9
20260904043638 72 358 0.0 0.0 0.00 0.00 0.00 84 1013.8
20260904042958 0 356 0.0 0.0 0.00 0.00 0.00
20260904042205 73 356 0.0 0.0 0.00 0.00 0.00 83 1013.8
20260904041526 0 356 0.0 0.0 0.00 0.00 0.00
20260904040624 73 357 0.0 0.0 0.00 0.00 0.00 84 1013.9
20260904035944 73 356 0.0 0.0 0.00 0.00 0.00 84 1013.9
20260904035306 0 355 0.0 0.0 0.00 0.00 0.00
20260904034136 73 356 0.0 0.0 0.00 0.00 0.00 84 1013.9
20260904033457 73 358 0.0 0.0 0.00 0.00 0.00 82 1013.8
20260904032818 0 356 0.0 0.0 0.00 0.00 0.00
20260904031658 73 357 0.0 8.0 0.00 0.00 0.00 81 1013.6
20260904031018 73 355 3.0 9.0 0.00 0.00 0.00 79 1013.6
20260904030337 73 357 4.0 9.0 0.00 0.00 0.00 80 1013.5
20260904025659 74 356 0.0 10.0 0.00 0.00 0.00 79 1013.6
20260904025017 73 357 4.0 10.0 0.00 0.00 0.00 81 1013.6
20260904024337 74 356 5.0 9.0 0.00 0.00 0.00 81 1013.6
20260904023658 0 357 0.0 14.0 0.00 0.00 0.00
20260904022903 73 354 7.0 14.0 0.00 0.00 0.00 83 1013.6
20260904022224 0 356 7.0 8.0 0.00 0.00 0.00
20260904021516 74 357 5.0 11.0 0.00 0.00 0.00 84 1013.6
20260904020836 74 354 6.0 12.0 0.00 0.00 0.00 84 1013.7
20260904020156 74 354 7.0 12.0 0.00 0.00 0.00 84 1013.7
20260904015532 74 355 7.0 14.0 0.00 0.00 0.00 82 1013.6
20260904014836 74 356 6.0 14.0 0.00 0.00 0.00 80 1013.6
20260904014201 0 355 5.0 3.0 0.00 0.00 0.00
20260904013406 74 354 7.0 16.0 0.00 0.00 0.00 84 1013.5
20260904012726 74 354 8.0 16.0 0.00 0.00 0.00 83 1013.1
20260904012056 74 352 10.0 17.0 0.00 0.00 0.00 84 1013.0
20260904011407 74 358 10.0 18.0 0.00 0.00 0.00 86 1012.8
20260904010736 74 355 11.0 19.0 0.00 0.00 0.00 88 1012.8
20260904010052 74 355 12.0 19.0 0.00 0.00 0.00 90 1012.8
20260904005407 0 354 10.0 8.0 0.00 0.00 0.00
20260904004402 75 356 10.0 19.0 0.00 0.00 0.00 89 1012.4
20260904003714 0 353 11.0 7.0 0.00 0.00 0.00
20260904002911 0 355 9.0 8.0 0.00 0.00 0.00
20260904002119 75 356 9.0 16.0 0.00 0.00 0.00 88 1012.2
20260904001444 75 352 9.0 17.0 0.00 0.00 0.00 87 1012.2
20260904000759 0 355 11.0 10.0 0.00 0.00 0.00
20260903235953 75 356 9.0 18.0 0.00 0.00 0.00 85 1012.4
20260903235314 75 356 9.0 14.0 0.00 0.00 0.00 85 1012.5
20260903234633 75 352 8.0 12.0 0.00 0.00 0.00 86 1012.6
20260903233954 0 356 9.0 9.0 0.00 0.00 0.00
20260903233253 0 356 10.0 10.0 0.00 0.00 0.00
20260903232504 0 356 10.0 11.0 0.00 0.00 0.00
20260903231707 0 355 9.0 7.0 0.00 0.00 0.00
20260903230915 76 354 9.0 14.0 0.00 0.00 0.00 81 1012.6
20260903230234 76 357 8.0 12.0 0.00 0.00 0.00 82 1012.6
20260903225554 76 352 6.0 10.0 0.00 0.00 0.00 82 1012.7
20260903224914 76 354 7.0 11.0 0.00 0.00 0.00 82 1012.8
20260903224244 0 0 6.0 6.0 0.00 0.00 0.00
20260903223443 76 354 8.0 11.0 0.00 0.00 0.00 79 1012.9
20260903222813 76 355 7.0 11.0 0.00 0.00 0.00 81 1013.0
20260903222123 76 356 0.0 0.0 0.00 0.00 0.00 81 1012.9
20260903221449 76 356 0.0 0.0 0.00 0.00 0.00 81 1012.9
20260903220804 76 358 0.0 0.0 0.00 0.00 0.00 81 1012.6
20260903220124 76 356 0.0 0.0 0.00 0.00 0.00 79 1012.4
20260903215454 76 356 0.0 0.0 0.00 0.00 0.00 78 1012.4
20260903214804 77 359 0.0 5.0 0.00 0.00 0.00 78 1012.4
20260903214124 0 357 0.0 5.0 0.00 0.00 0.00
20260903213221 77 358 0.0 0.0 0.00 0.00 0.00 79 1012.0
20260903212551 0 356 0.0 0.0 0.00 0.00 0.00
20260903211751 0 359 0.0 4.0 0.00 0.00 0.00
20260903210936 77 357 0.0 0.0 0.00 0.00 0.00 78 1012.3
20260903210150 76 357 0.0 6.0 0.00 0.00 0.00 77 1012.4
20260903205504 76 358 0.0 0.0 0.00 0.00 0.00 77 1012.4
20260903204829 76 357 0.0 0.0 0.00 0.00 0.00 79 1012.3
20260903204145 76 355 0.0 9.0 0.00 0.00 0.00 78 1012.6
20260903203505 76 356 5.0 9.0 0.00 0.00 0.00 79 1012.7
20260903202825 76 355 0.0 0.0 0.00 0.00 0.00 79 1012.8
20260903201910 0 357 1.0 7.0 0.00 0.00 0.00
20260903201158 76 355 2.0 10.0 0.00 0.00 0.00 80 1013.1